DW7889 Weather Reports


Display with metric or nautical units.
time (UTC)temp
F
wind
direction
speed
MPH
gust
MPH
rain 1hr
in
rain 24hr
in
rain mn
in
humidity
%
barometer
mb
20260903035536 57 359 5.0 9.0 0.00 0.00 0.00 69 1017.0
20260903035057 57 1 5.0 8.0 0.00 0.00 0.00 69 1017.0
20260903034559 57 356 4.0 8.0 0.00 0.00 0.00 69 1017.1
20260903034039 57 360 3.0 8.0 0.00 0.00 0.00 69 1017.1
20260903033541 56 347 3.0 6.0 0.00 0.00 0.00 69 1017.2
20260903033044 57 359 3.0 7.0 0.00 0.00 0.00 68 1017.3
20260903032606 57 359 4.0 7.0 0.00 0.00 0.00 68 1017.3
20260903032046 57 360 4.0 6.0 0.00 0.00 0.00 67 1017.4
20260903031548 57 359 3.0 7.0 0.00 0.00 0.00 66 1017.4
20260903031029 58 17 4.0 7.0 0.00 0.00 0.00 65 1017.5
20260903030530 58 10 4.0 7.0 0.00 0.00 0.00 65 1017.6
20260903030036 58 359 4.0 7.0 0.00 0.00 0.00 65 1017.6
20260903025538 58 360 5.0 8.0 0.00 0.00 0.00 64 1017.7
20260903025041 58 359 5.0 8.0 0.00 0.00 0.00 64 1017.7
20260903024545 58 7 5.0 8.0 0.00 0.00 0.00 64 1017.8
20260903024104 58 25 5.0 9.0 0.00 0.00 0.00 65 1017.9
20260903023547 58 359 4.0 9.0 0.00 0.00 0.00 65 1017.9
20260903023029 58 1 5.0 7.0 0.00 0.00 0.00 65 1018.0
20260903022532 58 1 4.0 8.0 0.00 0.00 0.00 65 1017.9
20260903022040 58 3 4.0 9.0 0.00 0.00 0.00 65 1018.1
20260903021544 58 353 5.0 9.0 0.00 0.00 0.00 65 1018.1
20260903021047 58 354 5.0 8.0 0.00 0.00 0.00 65 1018.2
20260903020549 58 359 5.0 9.0 0.00 0.00 0.00 65 1018.1
20260903020029 58 341 4.0 9.0 0.00 0.00 0.00 65 1018.2
20260903015551 58 342 4.0 7.0 0.00 0.00 0.00 65 1018.3
20260903015031 58 14 5.0 7.0 0.00 0.00 0.00 64 1018.3
20260903014534 58 319 5.0 7.0 0.00 0.00 0.00 64 1018.4
20260903014036 58 1 4.0 6.0 0.00 0.00 0.00 64 1018.5
20260903013540 58 15 2.0 5.0 0.00 0.00 0.00 64 1018.4
20260903013040 58 333 3.0 7.0 0.00 0.00 0.00 64 1018.4
20260903012542 58 359 3.0 5.0 0.00 0.00 0.00 64 1018.5
20260903012045 59 359 2.0 3.0 0.00 0.00 0.00 64 1018.5
20260903011547 59 319 2.0 3.0 0.00 0.00 0.00 63 1018.4
20260903011034 59 337 2.0 6.0 0.00 0.00 0.00 63 1018.6
20260903010558 59 322 3.0 7.0 0.00 0.00 0.00 63 1018.5
20260903010041 59 360 3.0 7.0 0.00 0.00 0.00 64 1018.6
20260903005543 59 1 2.0 5.0 0.00 0.00 0.00 65 1018.6
20260903005041 59 359 3.0 5.0 0.00 0.00 0.00 65 1018.6
20260903004603 59 340 2.0 4.0 0.00 0.00 0.00 66 1018.5
20260903004041 59 360 3.0 5.0 0.00 0.00 0.00 66 1018.6
20260903003604 58 360 3.0 5.0 0.00 0.00 0.00 68 1018.5
20260903003047 58 1 3.0 4.0 0.00 0.00 0.00 70 1018.6
20260903002118 58 357 0.0 0.0 0.00 0.00 0.00 73 1018.6
20260903000605 58 357 0.0 0.0 0.00 0.00 0.00 74 1018.8
20260903000043 58 357 0.0 0.0 0.00 0.00 0.00 74 1018.9
20260902235545 58 351 0.0 0.0 0.00 0.00 0.00 74 1018.9
20260902235047 58 352 0.0 0.0 0.00 0.00 0.00 74 1018.9
20260902234530 58 345 0.0 0.0 0.00 0.00 0.00 74 1019.0
20260902234033 58 331 0.0 0.0 0.00 0.00 0.00 74 1019.0
20260902233535 58 331 0.0 0.0 0.00 0.00 0.00 74 1019.1
20260902233038 59 331 0.0 0.0 0.00 0.00 0.00 75 1019.0
20260902232540 59 331 0.0 0.0 0.00 0.00 0.00 73 1019.0
20260902232102 59 331 0.0 0.0 0.00 0.00 0.00 72 1019.0
20260902231544 59 331 0.0 0.0 0.00 0.00 0.00 72 1018.9
20260902231029 59 331 0.0 0.0 0.00 0.00 0.00 73 1018.9
20260902230531 59 331 0.0 0.0 0.00 0.04 0.00 73 1018.8
20260902230037 59 331 0.0 0.0 0.00 0.04 0.00 73 1018.7
20260902225537 59 331 0.0 0.0 0.00 0.04 0.00 72 1018.7
20260902225040 59 331 0.0 0.0 0.00 0.04 0.00 72 1018.7
20260902224543 59 331 0.0 0.0 0.00 0.04 0.00 71 1018.6
20260902224042 59 331 0.0 0.0 0.00 0.04 0.00 71 1018.6
20260902223541 60 331 0.0 0.0 0.00 0.04 0.00 70 1018.6
20260902223043 60 331 0.0 0.0 0.00 0.04 0.00 70 1018.7
20260902222545 60 331 0.0 0.0 0.00 0.04 0.00 69 1018.7
20260902222027 60 331 0.0 0.0 0.00 0.04 0.00 68 1018.7
20260902221532 60 331 0.0 0.0 0.00 0.04 0.00 69 1018.7
20260902221039 60 319 0.0 0.0 0.00 0.04 0.00 67 1018.7
20260902220541 60 319 0.0 0.0 0.00 0.12 0.00 67 1018.8
20260902220046 60 319 0.0 0.0 0.00 0.12 0.00 68 1018.8
20260902215548 60 319 0.0 0.0 0.00 0.12 0.00 67 1018.7
20260902215109 60 319 0.0 0.0 0.00 0.12 0.00 66 1018.7
20260902214529 61 319 0.0 0.0 0.00 0.12 0.00 66 1018.7
20260902214032 61 319 0.0 0.0 0.00 0.12 0.00 65 1018.8
20260902213535 62 319 0.0 0.0 0.00 0.12 0.00 65 1018.8
20260902213035 62 317 0.0 0.0 0.00 0.12 0.00 63 1018.8
20260902212538 63 328 0.0 0.0 0.00 0.12 0.00 62 1018.8
20260902212041 64 328 0.0 0.0 0.00 0.12 0.00 60 1018.9
20260902211544 64 358 0.0 0.0 0.00 0.12 0.00 58 1018.9
20260902211045 65 358 0.0 2.0 0.00 0.12 0.00 56 1018.8
20260902210544 65 359 0.0 2.0 0.00 0.12 0.00 55 1018.9
20260902210044 65 357 0.0 4.0 0.00 0.12 0.00 54 1018.9
20260902205548 66 357 1.0 4.0 0.00 0.12 0.00 52 1018.9
20260902205029 66 359 2.0 6.0 0.00 0.12 0.00 50 1019.0
20260902204532 66 13 2.0 6.0 0.00 0.12 0.00 48 1019.0
20260902204035 66 26 2.0 5.0 0.00 0.12 0.00 47 1019.0
20260902203537 67 11 4.0 5.0 0.00 0.12 0.00 47 1019.0
20260902203038 67 23 3.0 6.0 0.00 0.12 0.00 47 1019.1
20260902202559 67 357 3.0 6.0 0.00 0.12 0.00 43 1019.1
20260902202039 67 17 4.0 6.0 0.00 0.12 0.00 44 1019.1
20260902201602 68 1 4.0 6.0 0.00 0.12 0.00 44 1019.1
20260902201043 68 1 3.0 7.0 0.00 0.12 0.00 43 1019.2
20260902200545 69 360 4.0 7.0 0.00 0.12 0.00 42 1019.2
20260902200049 69 349 3.0 5.0 0.00 0.12 0.00 40 1019.2
20260902195610 69 1 2.0 5.0 0.00 0.12 0.00 39 1019.2
20260902195050 69 356 2.0 5.0 0.00 0.12 0.00 36 1019.2
20260902194531 69 314 3.0 7.0 0.00 0.12 0.00 34 1019.1
20260902194033 69 360 4.0 7.0 0.00 0.12 0.00 34 1019.1
20260902193557 69 330 3.0 6.0 0.00 0.12 0.00 35 1019.2
20260902193040 69 18 2.0 7.0 0.00 0.12 0.00 33 1019.1
20260902192546 69 18 4.0 7.0 0.00 0.12 0.00 34 1019.1
20260902192046 70 49 1.0 7.0 0.00 0.12 0.00 39 1019.2
20260902191608 69 36 3.0 7.0 0.00 0.12 0.00 40 1019.2
20260902191029 69 21 4.0 6.0 0.00 0.12 0.00 38 1019.1
20260902190533 69 25 3.0 7.0 0.00 0.12 0.00 34 1019.1
20260902190038 69 354 3.0 6.0 0.00 0.12 0.00 33 1019.1
20260902185539 70 347 4.0 7.0 0.00 0.12 0.00 29 1019.2
20260902185041 69 1 0.0 7.0 0.00 0.12 0.00 39 1019.2
20260902184540 70 344 3.0 7.0 0.00 0.12 0.00 38 1019.1
20260902184042 70 11 5.0 7.0 0.00 0.12 0.00 40 1019.2
20260902183543 70 335 2.0 5.0 0.00 0.12 0.00 38 1019.2
20260902183105 70 359 3.0 7.0 0.00 0.12 0.00 38 1019.3
20260902182547 70 352 4.0 7.0 0.00 0.12 0.00 41 1019.2
20260902182047 69 1 2.0 5.0 0.00 0.12 0.00 44 1019.2
20260902181550 69 56 2.0 6.0 0.00 0.12 0.00 46 1019.2
20260902181127 69 19 5.0 6.0 0.00 0.12 0.00 45 1019.3
20260902180049 69 323 327.0 327.0 0.00 0.00 0.00 47 1019.6
20260902175054 68 358 3.0 7.0 0.00 0.28 0.00 52 1019.6
20260902174544 69 8 2.0 6.0 0.00 0.28 0.00 51 1019.6
20260902174045 69 41 4.0 7.0 0.00 0.28 0.00 50 1019.7
20260902173548 69 25 4.0 7.0 0.00 0.28 0.00 54 1019.7
20260902173032 70 29 4.0 7.0 0.00 0.28 0.00 52 1019.7
20260902172555 69 359 3.0 6.0 0.00 0.28 0.00 56 1019.7
20260902172036 69 9 3.0 6.0 0.00 0.28 0.00 56 1019.8
20260902171537 69 20 3.0 8.0 0.00 0.28 0.00 51 1019.9
20260902171040 69 360 5.0 8.0 0.00 0.28 0.00 52 1020.0
20260902170602 69 37 3.0 7.0 0.00 0.28 0.00 53 1020.0
20260902170026 68 18 4.0 7.0 0.00 0.28 0.00 53 1020.1
20260902165531 68 28 4.0 5.0 0.00 0.28 0.00 54 1020.2
20260902165030 67 1 3.0 5.0 0.00 0.28 0.00 56 1020.3
20260902164531 66 308 1.0 8.0 0.00 0.28 0.00 58 1020.2
20260902164033 67 317 4.0 8.0 0.00 0.28 0.00 56 1020.3
20260902163531 67 293 1.0 7.0 0.00 0.28 0.00 59 1020.3
20260902163051 67 225 2.0 7.0 0.00 0.28 0.00 59 1020.4
20260902162530 67 5 4.0 7.0 0.00 0.28 0.00 59 1020.5
20260902162031 66 294 2.0 8.0 0.00 0.28 0.00 59 1020.5
20260902161534 67 46 5.0 8.0 0.00 0.28 0.00 59 1020.6
20260902161037 67 38 2.0 7.0 0.00 0.28 0.00 60 1020.6
20260902160538 67 24 3.0 6.0 0.00 0.31 0.00 60 1020.8
20260902160039 66 293 4.0 6.0 0.00 0.31 0.00 62 1020.8
20260902155544 65 314 0.0 7.0 0.00 0.31 0.00 64 1020.9
20260902155102 65 292 3.0 7.0 0.00 0.31 0.00 65 1020.9
20260902154543 64 333 3.0 8.0 0.00 0.31 0.00 65 1020.9
20260902154042 65 276 1.0 6.0 0.00 0.31 0.00 65 1021.0
20260902153544 64 30 3.0 5.0 0.00 0.31 0.00 64 1021.0
20260902153105 64 303 1.0 5.0 0.00 0.31 0.00 65 1021.0
20260902152604 64 216 1.0 0.0 0.00 0.00 0.00 64 1021.4
20260902152046 64 255 0.0 4.0 0.00 0.31 0.00 65 1021.0
20260902151545 64 1 3.0 6.0 0.00 0.31 0.00 64 1021.2
20260902151047 64 11 3.0 6.0 0.00 0.31 0.00 66 1021.2
20260902150528 63 322 2.0 5.0 0.00 0.31 0.00 66 1021.2
20260902150036 63 103 2.0 6.0 0.00 0.31 0.00 67 1021.3
20260902145539 62 38 3.0 7.0 0.00 0.31 0.00 70 1021.3
20260902145042 62 78 2.0 7.0 0.00 0.31 0.00 68 1021.4
20260902144543 61 101 1.0 4.0 0.00 0.31 0.00 68 1021.4
20260902144042 61 217 1.0 3.0 0.00 0.31 0.00 69 1021.5
20260902143528 61 188 1.0 3.0 0.00 0.31 0.00 68 1021.5
20260902143030 61 119 1.0 4.0 0.00 0.31 0.00 69 1021.5
20260902142530 61 90 2.0 5.0 0.00 0.31 0.00 70 1021.6
20260902142032 61 151 1.0 5.0 0.00 0.31 0.00 68 1021.6
20260902141534 62 77 3.0 6.0 0.00 0.31 0.00 68 1021.6
20260902141036 61 32 2.0 5.0 0.00 0.31 0.00 69 1021.5
20260902140534 61 26 3.0 5.0 0.00 0.35 0.00 69 1021.5
20260902140031 61 315 1.0 6.0 0.00 0.35 0.00 70 1021.7
20260902135534 60 256 1.0 7.0 0.00 0.35 0.00 73 1021.7
20260902135033 60 13 4.0 7.0 0.00 0.35 0.00 73 1021.6
20260902134535 60 44 1.0 4.0 0.00 0.35 0.00 74 1021.7
20260902134036 60 344 2.0 5.0 0.00 0.35 0.00 74 1021.7
20260902133539 59 35 2.0 5.0 0.00 0.35 0.00 75 1021.6
20260902133048 59 13 2.0 5.0 0.00 0.35 0.00 76 1021.7
20260902132606 58 357 2.0 5.0 0.00 0.35 0.00 76 1021.8
20260902132050 58 63 2.0 4.0 0.00 0.35 0.00 78 1021.8
20260902131531 58 217 2.0 4.0 0.00 0.35 0.00 77 1021.9
20260902131032 58 41 1.0 4.0 0.00 0.35 0.00 77 1021.9
20260902130534 57 49 1.0 3.0 0.00 0.35 0.00 79 1021.8
20260902130038 56 84 1.0 4.0 0.00 0.35 0.00 79 1021.8
20260902125539 56 72 3.0 7.0 0.00 0.35 0.00 82 1021.8
20260902125040 56 27 3.0 7.0 0.00 0.35 0.00 82 1021.7
20260902124542 55 4 4.0 7.0 0.00 0.35 0.00 82 1021.7
20260902124044 55 21 5.0 8.0 0.00 0.35 0.00 83 1021.7
20260902123546 55 2 5.0 8.0 0.00 0.35 0.00 84 1021.6
20260902123029 55 15 5.0 7.0 0.00 0.35 0.00 84 1021.5
20260902122530 55 15 3.0 7.0 0.00 0.35 0.00 85 1021.6
20260902122037 54 23 4.0 6.0 0.00 0.35 0.00 84 1021.6
20260902121559 54 49 3.0 6.0 0.00 0.35 0.00 85 1021.7
20260902121038 53 359 3.0 7.0 0.00 0.35 0.00 86 1021.7
20260902120538 53 6 4.0 6.0 0.00 0.39 0.00 86 1021.7
20260902120038 53 1 4.0 6.0 0.00 0.39 0.00 87 1021.6
20260902115603 53 18 4.0 7.0 0.00 0.39 0.00 88 1021.5
20260902115044 53 6 5.0 7.0 0.00 0.39 0.00 87 1021.4
20260902114605 53 7 4.0 6.0 0.00 0.39 0.00 89 1021.3
20260902114105 52 23 4.0 6.0 0.00 0.39 0.00 89 1021.3
20260902113545 52 19 4.0 7.0 0.00 0.39 0.00 90 1021.3
20260902113044 51 359 4.0 7.0 0.00 0.39 0.00 90 1021.3
20260902112529 51 8 4.0 7.0 0.00 0.39 0.00 91 1021.2
20260902112031 51 1 5.0 7.0 0.00 0.39 0.00 91 1021.2
20260902111532 50 28 5.0 8.0 0.00 0.39 0.00 91 1021.2
20260902111034 50 26 6.0 8.0 0.00 0.39 0.00 91 1021.2
20260902110536 50 11 5.0 8.0 0.00 0.39 0.00 92 1021.2
20260902110039 49 12 5.0 8.0 0.00 0.39 0.00 93 1021.1
20260902105538 49 12 4.0 6.0 0.00 0.39 0.00 94 1021.1
20260902105101 48 15 3.0 6.0 0.00 0.39 0.00 96 1021.1
20260902104544 48 345 4.0 6.0 0.00 0.39 0.00 95 1021.1
20260902104044 47 316 3.0 6.0 0.00 0.39 0.00 95 1021.1
20260902103542 47 333 5.0 7.0 0.00 0.39 0.00 95 1021.1
20260902103039 47 349 4.0 7.0 0.00 0.39 0.00 94 1021.0
20260902102539 48 9 4.0 6.0 0.00 0.39 0.00 94 1021.1
20260902102042 48 37 4.0 6.0 0.00 0.39 0.00 94 1021.0
20260902101542 48 359 3.0 6.0 0.00 0.39 0.00 94 1020.9
20260902101043 48 6 4.0 6.0 0.00 0.39 0.00 94 1020.9
20260902100541 49 353 3.0 6.0 0.00 0.43 0.00 94 1020.8
20260902095544 49 1 327.0 327.0 0.00 0.00 0.00 94 1019.6
20260902094048 48 360 4.0 5.0 0.00 0.43 0.00 94 1020.4
20260902093546 49 360 3.0 4.0 0.00 0.43 0.00 94 1020.3
20260902093032 49 360 2.0 4.0 0.00 0.43 0.00 94 1020.1
20260902092534 49 1 3.0 5.0 0.00 0.43 0.00 94 1020.0
20260902092053 49 1 3.0 5.0 0.00 0.43 0.00 94 1019.9
20260902091555 49 23 2.0 6.0 0.00 0.43 0.00 94 1019.7
20260902091036 49 18 3.0 6.0 0.00 0.43 0.00 94 1019.7
20260902090556 49 4 3.0 5.0 0.00 0.43 0.00 94 1019.5
20260902090057 49 1 2.0 4.0 0.00 0.43 0.00 94 1019.5
20260902085601 49 25 2.0 3.0 0.00 0.43 0.00 94 1019.5
20260902085043 49 25 2.0 3.0 0.00 0.43 0.00 94 1019.4
20260902084546 49 345 2.0 3.0 0.00 0.43 0.00 94 1019.4
20260902084047 49 8 1.0 5.0 0.00 0.43 0.00 95 1019.4
20260902083527 49 25 3.0 5.0 0.00 0.43 0.00 95 1019.4
20260902083030 49 35 3.0 5.0 0.00 0.43 0.00 95 1019.4
20260902082555 49 7 3.0 5.0 0.00 0.43 0.00 95 1019.5
20260902082036 50 18 3.0 5.0 0.00 0.43 0.00 95 1019.5
20260902081539 50 7 3.0 5.0 0.00 0.43 0.00 96 1019.6
20260902081101 50 359 2.0 5.0 0.00 0.43 0.00 96 1019.6
20260902080541 50 30 2.0 3.0 0.00 0.43 0.00 96 1019.4
20260902080045 50 2 2.0 3.0 0.00 0.43 0.00 96 1019.6
20260902075546 50 2 2.0 3.0 0.00 0.43 0.00 96 1019.6
20260902075048 50 2 2.0 4.0 0.00 0.43 0.00 96 1019.6
20260902074535 49 4 2.0 3.0 0.00 0.43 0.00 96 1019.4
20260902074035 49 4 2.0 3.0 0.00 0.43 0.00 96 1019.5
20260902073559 49 4 2.0 4.0 0.00 0.43 0.00 96 1019.6
20260902073041 50 4 2.0 4.0 0.00 0.43 0.00 96 1019.6
20260902072543 50 38 2.0 2.0 0.00 0.43 0.00 96 1019.5
20260902072044 50 81 1.0 3.0 0.00 0.43 0.00 96 1019.6
20260902071528 50 103 1.0 2.0 0.00 0.43 0.00 96 1019.7
20260902071033 50 120 1.0 2.0 0.00 0.43 0.00 96 1019.7
20260902070533 50 120 0.0 2.0 0.00 0.43 0.00 96 1019.6
20260902070058 50 120 1.0 2.0 0.00 0.43 0.00 96 1019.7
20260902065538 50 120 0.0 1.0 0.00 0.43 0.00 96 1019.7
20260902065041 50 120 0.0 2.0 0.00 0.43 0.00 96 1019.8
20260902064604 50 120 1.0 2.0 0.00 0.43 0.00 96 1019.7
20260902064046 50 120 1.0 3.0 0.00 0.43 0.00 96 1019.7
20260902063528 51 138 2.0 4.0 0.00 0.43 0.00 96 1019.8
20260902063052 51 131 2.0 5.0 0.00 0.43 0.00 96 1019.8
20260902062537 51 143 3.0 5.0 0.00 0.43 0.00 96 1019.7
20260902062037 51 134 3.0 5.0 0.00 0.43 0.00 96 1019.7
20260902061119 51 129 2.0 5.0 0.00 0.43 0.00 96 1019.8
20260902060538 51 147 4.0 5.0 0.00 0.43 0.00 96 1019.8
20260902060044 51 148 2.0 4.0 0.00 0.43 0.00 96 1019.8
20260902055546 51 169 3.0 4.0 0.00 0.43 0.00 96 1019.9
20260902055050 51 191 2.0 5.0 0.00 0.43 0.00 96 1020.0
20260902054531 51 192 3.0 6.0 0.00 0.43 0.00 96 1020.0
20260902054035 51 155 3.0 6.0 0.00 0.43 0.00 96 1020.1
20260902053538 51 119 3.0 5.0 0.00 0.43 0.00 96 1020.2
20260902053039 51 124 2.0 4.0 0.00 0.43 0.00 96 1020.2
20260902052540 51 158 2.0 6.0 0.00 0.43 0.00 96 1020.1
20260902052042 51 150 3.0 6.0 0.00 0.43 0.00 96 1020.2
20260902051543 51 208 2.0 5.0 0.00 0.43 0.00 96 1020.3
20260902051105 51 174 3.0 5.0 0.00 0.43 0.00 96 1020.2
20260902050605 51 187 2.0 5.0 0.00 0.43 0.00 96 1020.3
20260902050106 51 117 3.0 5.0 0.00 0.43 0.00 96 1020.3
20260902045544 51 119 4.0 5.0 0.00 0.43 0.00 96 1020.3
20260902045042 51 134 4.0 8.0 0.00 0.43 0.00 96 1020.5
20260902044540 51 105 4.0 8.0 0.00 0.43 0.00 96 1020.5
20260902044042 52 138 4.0 9.0 0.00 0.43 0.00 96 1020.5
20260902043529 52 106 6.0 9.0 0.00 0.43 0.00 96 1020.4
20260902043030 52 161 6.0 9.0 0.00 0.43 0.00 96 1020.5
20260902042532 52 125 3.0 9.0 0.00 0.43 0.00 96 1020.6
20260902042034 52 122 6.0 9.0 0.00 0.43 0.00 96 1020.6
20260902041540 52 129 6.0 9.0 0.00 0.43 0.00 96 1020.6
20260902041041 52 143 7.0 9.0 0.00 0.43 0.00 96 1020.6
20260902040537 52 142 5.0 7.0 0.00 0.43 0.00 96 1020.7